RH
14 14 17 23 30 32 37 33 26 29 32 36 39 34 26 22 17 15 13 11 10 10 9 7 14 19 20 44 64 61 63 62 64 71 72 81 77 75 74 58 54 48 61 86 88 90 93 80 66 63 60 57 60 58 51 50 54 59 64 64 63 60 55 50 46 46 49 56 61 67 67 64 69 75 81 89 93 91 89 88 85 85 86 87 88 87 86 87 88 89 87 87 91 91 90 93 94
11 15 25 35 34 37 44 33 31 32 32 38 35 29 24 19 14 12 11 10 9 9 9 7 26 43 42 52 56 59 68 68 68 77 85 84 82 83 75 60 51 47 63 86 88 89 94 84 69 64 61 58 61 59 54 58 61 70 76 68 65 62 58 56 52 52 59 70 76 81 77 71 72 72 78 88 91 90 89 88 85 84 85 87 88 87 87 84 85 90 89 88 91 92 94 96 95
11 19 33 41 36 39 43 33 40 37 33 39 31 25 20 15 9 9 9 8 9 8 8 8 31 44 47 59 55 60 69 71 74 81 87 82 88 94 86 75 61 54 67 86 89 86 89 84 74 67 63 59 61 60 58 65 70 78 82 73 68 63 61 60 59 60 67 81 86 87 83 76 73 72 80 89 88 86 89 88 84 84 86 89 88 85 84 82 77 76 84 90 91 92 93 91 90
12 20 30 42 40 36 38 36 46 41 34 37 28 21 16 12 8 8 9 8 8 8 5 11 42 47 48 63 55 62 67 67 73 77 84 81 89 96 89 80 69 68 77 89 90 85 84 83 79 73 67 61 62 61 60 68 74 81 79 73 70 64 62 62 66 70 74 86 87 85 85 79 77 80 85 87 84 85 90 89 85 86 90 90 87 83 81 82 70 60 70 80 82 83 84 84 84
11 18 26 39 42 33 34 37 42 38 32 32 25 18 12 10 9 8 8 8 7 9 4 11 48 52 49 59 55 66 68 69 73 71 81 86 89 89 83 75 69 75 86 92 90 88 87 85 84 79 72 64 63 62 60 67 72 78 75 69 69 65 62 62 72 80 80 87 87 83 83 79 80 86 88 86 85 89 92 88 87 89 89 87 84 83 82 81 66 54 63 70 74 76 77 79 80
13 21 28 36 39 29 32 39 39 38 29 24 21 17 12 9 9 9 7 8 8 7 8 23 47 54 58 59 58 66 64 69 74 74 84 91 89 79 75 70 66 77 90 95 91 91 93 91 88 82 76 67 65 63 61 62 63 73 75 69 68 66 62 61 72 82 83 86 89 86 82 79 80 86 89 87 85 89 90 86 88 89 88 86 84 84 84 82 62 48 57 65 69 72 73 75 75
19 27 31 35 35 28 38 46 40 38 29 21 19 17 14 11 9 8 8 7 10 6 17 46 50 57 68 59 66 71 62 66 71 78 84 87 84 74 71 65 65 79 89 91 91 92 94 94 91 86 80 72 68 64 62 57 57 69 76 71 68 66 62 59 66 77 82 83 86 85 83 82 80 85 90 89 85 87 89 87 87 87 87 86 86 87 84 80 61 40 46 59 63 67 69 69 70
24 30 33 36 35 28 38 42 35 36 28 20 17 15 14 12 8 7 8 6 10 5 20 52 51 65 76 65 80 79 66 70 72 79 80 81 80 74 70 62 67 83 86 86 92 92 93 96 93 87 84 78 70 66 63 56 55 68 75 70 67 66 63 58 61 71 77 81 84 83 84 83 79 84 89 90 90 89 87 85 86 86 84 83 86 87 80 73 64 43 36 51 58 61 64 64 64
27 31 32 35 37 31 32 32 26 26 21 18 15 14 16 11 8 7 7 6 8 6 21 47 52 68 78 79 90 81 74 77 75 78 76 76 78 74 70 62 65 81 89 89 91 91 93 97 92 87 87 81 73 68 64 60 63 72 74 69 67 67 65 59 59 68 73 79 83 80 82 80 77 84 89 89 89 86 84 84 85 85 81 81 83 81 75 68 67 49 30 44 54 55 58 57 57
31 29 31 33 37 35 34 31 23 21 17 16 13 11 13 8 8 7 6 7 5 19 41 50 57 69 77 87 90 81 79 77 78 79 75 76 76 72 73 71 65 75 92 92 90 89 90 92 89 88 88 85 79 72 67 66 71 73 72 69 68 69 66 59 59 70 75 76 75 72 76 75 75 84 90 88 86 84 84 86 86 85 80 80 80 75 71 66 66 50 28 38 50 51 53 53 58
37 27 27 32 35 38 38 35 27 23 17 12 10 8 10 6 8 7 7 8 4 28 52 55 65 73 77 87 86 80 76 74 76 76 75 75 74 74 80 82 73 74 89 91 88 87 86 88 90 90 89 89 86 80 73 71 73 72 73 72 69 68 63 59 63 72 74 73 72 71 73 74 77 87 91 88 86 86 86 89 88 84 78 77 76 70 68 64 62 48 28 34 46 48 50 56 63
41 30 24 33 39 38 35 32 25 22 16 11 9 7 9 7 9 8 7 10 7 22 40 51 63 69 82 91 86 81 75 74 74 73 74 74 76 82 85 83 76 75 83 85 85 87 87 89 95 93 91 92 90 87 82 79 78 75 75 72 66 64 61 62 67 68 68 73 78 76 74 75 78 84 88 87 87 86 87 91 88 83 79 76 72 68 66 62 59 46 32 35 43 48 55 63 66
38 33 25 32 36 31 26 23 19 20 16 11 9 7 9 7 8 8 8 9 10 27 40 51 59 69 89 88 81 85 81 76 73 73 73 76 83 87 85 81 78 75 75 78 84 90 91 93 97 94 89 90 91 89 86 86 83 77 71 67 65 64 64 66 65 62 67 78 85 82 78 76 75 75 77 83 87 86 89 93 89 83 80 74 69 68 64 61 57 46 40 41 45 54 60 64 67
32 29 26 31 31 24 22 20 16 16 13 11 9 8 8 8 9 7 10 7 11 39 52 52 58 70 87 86 85 91 86 77 77 82 81 84 91 91 85 80 77 71 69 74 83 92 94 94 95 94 90 88 90 89 88 87 81 73 67 65 68 68 66 65 61 62 71 79 85 86 82 78 77 74 72 78 86 87 91 93 88 82 78 71 67 68 64 61 57 45 45 50 54 60 62 64 68
27 24 23 27 27 22 20 18 15 13 13 12 9 9 8 7 9 6 10 8 13 43 53 48 52 62 78 86 87 86 83 84 87 92 93 94 98 97 91 86 83 79 78 78 81 88 93 94 92 92 88 81 81 83 85 83 75 69 67 69 72 71 67 63 60 65 75 79 83 84 82 81 80 76 75 78 83 89 92 91 86 81 77 70 66 68 65 61 57 46 46 57 60 60 62 64 68
21 18 19 22 23 20 19 16 14 14 13 11 8 9 9 7 9 7 9 7 14 37 45 42 45 55 69 75 75 79 87 90 86 86 92 98 100 99 99 94 89 90 90 85 86 90 91 89 84 77 68 63 68 74 78 76 72 67 68 73 75 73 68 65 63 68 77 81 81 81 82 84 82 79 80 81 83 90 92 89 84 81 78 71 66 68 67 62 58 48 44 56 60 59 62 63 68
15 15 19 22 21 19 20 17 12 13 11 10 10 9 8 8 8 7 8 12 27 40 43 48 51 56 65 68 74 85 92 87 79 79 85 93 97 99 99 92 89 94 96 93 92 88 81 73 63 55 49 52 61 68 73 74 71 69 71 76 78 74 71 70 66 69 79 84 84 84 86 85 84 83 84 84 85 88 89 85 82 81 78 72 67 67 69 64 59 54 44 49 58 60 60 62 70
15 19 22 23 21 17 17 14 9 10 9 9 9 9 8 8 7 8 6 16 43 50 48 59 64 65 68 75 85 87 87 81 75 79 85 92 95 98 99 95 94 95 98 98 87 72 62 55 47 41 41 49 55 57 66 74 73 72 75 79 81 76 74 75 71 72 80 88 89 87 87 86 85 86 85 84 84 88 87 82 80 81 78 73 70 67 69 66 60 60 54 51 57 61 60 64 74
16 22 23 20 19 16 12 10 9 8 9 9 8 9 8 8 7 8 6 14 45 57 56 69 74 76 78 81 86 83 81 78 74 78 88 94 94 95 99 98 96 95 98 90 73 62 57 60 67 64 61 62 61 66 74 79 80 78 78 81 83 78 77 79 76 77 81 87 89 86 85 85 84 85 85 83 82 88 89 82 79 80 78 75 72 68 69 68 62 61 63 61 60 61 62 67 75
15 18 20 19 15 12 10 9 9 8 9 9 8 9 8 8 6 8 7 13 45 62 61 74 83 85 86 83 82 82 82 79 76 81 90 93 92 95 97 97 96 95 92 73 57 62 65 73 83 85 87 81 75 81 85 86 88 84 82 85 83 80 80 81 82 84 84 86 87 84 83 84 85 83 82 81 83 88 90 87 80 79 79 76 75 70 68 69 66 61 61 62 60 61 64 68 75
14 15 17 17 12 11 10 9 9 9 9 9 9 9 8 8 6 9 9 9 33 56 58 69 82 86 88 85 80 82 84 81 83 88 91 93 93 95 94 94 92 85 84 71 55 55 63 72 75 74 79 80 78 81 83 86 90 88 88 88 84 83 83 83 87 90 90 87 85 85 83 84 82 78 80 82 86 88 90 90 80 78 79 77 76 72 69 68 68 65 59 57 57 60 63 67 75
13 14 14 13 11 11 10 9 9 10 9 10 9 8 8 7 8 9 9 7 16 41 55 62 74 82 85 84 81 83 83 85 92 93 92 94 95 95 93 94 91 83 82 71 53 51 64 76 76 68 64 72 81 78 77 82 87 90 93 90 85 86 86 88 93 95 96 90 86 88 85 83 78 76 82 83 84 84 86 86 77 75 77 77 78 74 71 68 66 67 66 65 63 64 64 65 73
13 13 12 11 11 10 9 8 9 10 9 9 8 7 8 7 10 8 8 10 6 28 54 60 69 78 78 79 82 84 83 88 93 92 93 95 96 95 92 92 91 90 86 74 70 76 81 86 83 72 61 66 79 78 75 78 85 90 91 90 88 89 92 95 98 99 98 92 88 90 86 81 77 78 82 83 80 76 78 80 76 75 74 74 77 76 73 69 67 66 69 72 71 70 72 73 77
12 13 11 9 10 9 9 8 8 11 9 9 8 7 8 7 9 8 8 8 8 34 59 63 69 74 76 80 84 83 85 91 91 89 93 96 95 91 87 88 90 93 93 87 90 89 83 85 83 74 64 63 72 74 74 77 84 90 90 93 92 91 96 99 100 100 97 92 91 89 84 80 78 80 83 82 78 74 76 79 78 73 69 71 75 76 73 69 67 64 66 69 69 69 73 79 82
11 12 11 8 9 9 8 8 9 10 9 10 8 7 8 9 8 7 9 5 18 51 65 67 73 76 78 82 85 87 89 92 90 90 95 97 96 94 91 91 91 92 94 88 87 86 82 82 81 75 67 65 69 70 75 80 84 89 93 96 93 92 97 100 100 100 95 93 91 87 84 81 79 82 83 81 78 76 75 72 72 69 67 69 70 71 69 67 67 65 65 66 67 68 70 76 81
11 9 9 7 8 8 8 8 7 9 10 9 8 8 8 9 7 7 10 4 25 60 67 71 77 78 81 82 85 88 91 92 91 93 96 98 98 100 98 94 87 82 86 87 84 89 91 85 82 79 71 71 72 72 79 81 81 88 94 96 91 90 96 99 100 99 94 91 89 84 85 84 81 83 82 81 78 75 71 67 69 69 67 69 68 65 63 65 66 64 65 65 66 68 68 71 77
10 8 8 8 8 8 7 7 8 8 9 8 7 9 8 9 7 9 10 5 31 65 71 74 77 80 82 82 86 88 89 92 92 93 97 99 100 100 100 98 88 77 84 90 87 91 96 92 87 83 79 79 79 80 83 79 80 89 93 94 91 90 93 94 97 99 93 88 86 85 88 87 84 82 79 80 79 76 75 72 72 72 70 72 73 70 66 66 67 65 66 66 66 67 66 68 75
9 9 8 9 9 9 9 8 10 9 8 10 8 9 9 9 8 10 9 7 37 68 72 74 76 81 84 83 88 89 90 93 92 92 94 98 98 98 100 97 89 86 88 84 86 96 98 96 90 87 88 88 88 89 83 76 81 91 96 97 94 92 90 89 92 95 92 87 87 89 91 90 85 80 78 80 80 80 80 76 73 73 74 73 74 75 71 69 69 68 69 68 67 67 65 68 77
9 9 7 10 10 9 10 9 10 9 9 10 9 10 11 10 7 11 8 9 42 68 71 76 77 82 87 88 91 91 92 94 93 90 87 90 94 95 96 90 82 86 88 81 88 99 98 99 97 93 94 94 94 91 80 75 81 91 98 100 98 94 89 88 89 90 89 86 87 91 94 92 85 79 79 82 79 81 84 82 77 75 76 74 74 77 73 71 72 73 74 70 68 68 67 72 77
10 10 8 10 11 10 9 8 9 8 10 9 9 13 15 13 8 10 6 12 51 72 71 76 78 85 90 90 93 93 95 94 91 88 83 83 89 91 90 88 81 79 88 91 94 98 98 100 99 98 99 97 95 89 79 75 80 90 97 100 100 94 89 89 90 88 88 86 86 90 95 94 86 79 79 81 77 79 84 83 81 77 76 72 72 78 75 73 75 75 76 73 70 70 71 76 75
11 10 15 14 12 14 8 8 10 7 10 9 8 14 15 12 9 11 6 13 56 76 71 75 77 86 91 89 93 95 94 91 87 86 83 83 86 89 87 90 88 81 86 92 93 97 99 100 100 100 100 97 93 85 75 72 81 89 94 99 101 96 91 91 91 88 86 85 85 88 93 93 86 80 79 79 76 78 81 79 79 78 75 71 70 75 74 73 76 77 77 74 74 76 77 80 76
15 12 28 26 12 14 10 9 11 6 9 8 8 14 13 11 8 10 5 11 52 75 70 72 75 83 88 88 93 95 92 87 85 85 85 85 86 91 91 89 89 82 78 84 94 99 100 100 100 100 100 96 91 83 73 74 84 88 89 96 100 98 94 92 90 88 86 86 87 89 92 93 86 80 80 78 75 79 81 78 78 77 75 73 72 75 74 75 77 78 77 73 73 78 79 79 76
30 21 30 29 14 15 11 9 11 7 9 7 8 13 11 12 9 9 8 7 38 71 72 69 73 80 84 86 91 94 92 88 88 86 86 89 88 91 94 89 84 78 72 78 92 98 99 100 100 100 100 96 91 85 81 84 88 85 87 95 99 99 95 92 90 88 89 89 90 92 94 95 88 82 81 77 75 80 83 80 78 77 75 73 75 77 76 76 78 78 77 73 70 74 78 79 79
38 28 23 25 17 16 14 11 11 7 9 8 8 11 9 12 10 9 10 3 24 64 72 67 70 75 78 83 89 93 91 89 89 86 86 91 90 91 93 89 83 77 71 72 80 88 93 98 100 100 99 99 95 89 90 92 87 84 89 93 96 98 94 91 90 89 91 91 90 92 95 94 87 83 81 77 76 79 83 81 78 78 76 75 76 77 77 78 79 77 76 76 71 71 77 80 82
31 27 22 25 19 16 16 13 11 8 9 9 9 10 8 11 11 10 12 13 32 62 69 66 68 70 74 80 87 92 92 88 84 83 87 88 90 94 93 91 86 80 73 70 76 85 91 97 100 100 99 99 94 87 94 96 89 90 94 95 96 97 96 94 92 91 92 92 91 91 92 89 85 82 79 76 75 76 80 81 78 79 79 77 77 78 80 80 79 77 77 78 75 73 76 80 84
22 22 23 25 19 17 15 12 11 8 8 10 11 11 9 10 12 13 15 22 41 60 65 65 66 66 70 79 87 91 92 88 82 83 86 85 91 96 93 92 88 81 75 73 81 89 95 99 100 100 100 97 88 86 98 98 94 99 98 97 98 98 99 98 97 95 93 93 92 91 89 84 82 80 76 73 72 73 76 80 79 80 81 78 77 80 81 79 78 77 77 79 80 83 83 84 86
16 17 19 18 17 16 14 13 12 9 9 11 12 11 10 11 14 18 16 16 27 47 62 65 65 67 68 78 87 90 91 87 82 84 86 87 93 95 93 93 89 85 84 83 89 94 98 100 99 100 100 97 91 88 97 96 94 100 100 98 100 99 99 98 99 99 96 96 94 92 88 82 80 78 75 73 71 71 75 79 81 80 81 80 78 80 79 77 79 77 74 80 87 88 88 89 89
16 17 19 17 19 16 14 16 12 11 15 13 14 15 13 16 19 21 18 10 12 34 62 68 64 67 69 76 85 87 88 85 85 89 90 93 96 94 94 95 92 93 94 92 92 96 99 100 100 100 99 100 94 84 91 96 93 98 99 99 99 96 97 96 98 100 98 99 96 91 87 83 82 78 76 75 72 73 75 78 79 80 82 82 80 79 75 76 82 79 75 84 95 90 85 89 89
21 20 19 19 19 15 18 23 15 12 16 15 18 16 14 24 27 25 21 15 12 24 51 66 65 68 70 72 80 84 84 85 90 93 94 98 97 94 96 98 95 93 94 92 93 97 100 100 99 100 99 101 96 84 90 99 97 97 98 98 94 90 91 90 93 99 99 99 95 89 87 86 83 78 76 78 77 76 76 76 76 79 84 83 79 78 75 77 83 83 79 84 95 95 90 89 84
27 23 21 23 20 16 22 29 18 13 20 21 23 27 33 37 31 26 24 20 18 18 31 51 60 66 68 68 72 78 80 84 91 93 95 99 97 95 96 99 97 93 93 94 96 99 100 100 99 100 99 99 96 86 90 101 99 96 97 97 93 90 90 85 88 98 99 97 94 88 86 85 82 79 80 81 82 78 74 75 74 77 84 83 79 78 77 79 82 83 85 84 88 96 99 90 80
32 30 27 28 25 21 22 25 21 24 33 30 30 40 52 49 31 24 24 23 29 33 34 40 46 48 52 59 64 67 74 83 90 93 97 98 97 96 96 97 96 96 97 97 98 100 99 100 99 100 100 98 94 84 87 100 98 94 96 96 95 92 90 89 93 99 98 94 90 85 85 85 82 80 82 84 83 78 73 74 74 75 83 84 79 77 77 80 80 80 83 82 80 88 97 90 82
33 34 32 27 24 22 20 22 26 31 32 27 26 30 43 50 37 26 30 36 42 49 50 48 47 43 40 49 58 61 71 83 88 91 95 97 97 96 95 96 96 98 100 97 97 99 99 100 99 100 100 99 95 84 87 96 93 94 96 95 93 88 89 94 93 92 93 90 85 81 83 86 84 81 81 84 83 78 74 75 74 75 84 84 78 77 77 79 81 81 81 80 77 79 87 92 92
31 31 30 23 19 20 20 20 26 32 30 27 26 24 36 46 36 30 40 51 52 53 59 59 59 59 56 59 59 58 72 84 87 90 94 94 96 97 96 95 95 98 100 98 97 99 100 100 100 100 99 100 97 85 86 93 91 93 94 88 85 83 87 90 87 85 86 86 81 79 81 83 85 83 81 83 82 79 75 75 77 81 86 83 78 78 77 77 79 80 81 80 78 76 80 88 92
29 29 23 17 17 18 20 18 21 31 33 33 35 31 33 33 28 35 46 56 62 64 68 67 65 68 73 78 68 59 71 82 86 90 93 93 94 96 97 96 95 96 99 99 97 98 99 99 99 100 99 100 98 88 86 91 91 92 91 87 82 80 81 81 86 88 82 81 82 80 81 81 84 85 83 84 83 79 76 77 81 86 86 81 78 80 78 77 77 79 81 80 79 78 76 79 81
28 29 18 16 16 13 18 17 24 41 35 32 42 34 27 31 39 51 55 60 70 75 77 76 73 73 78 87 83 73 76 83 86 90 92 94 93 93 95 95 95 94 98 99 97 97 94 93 96 99 100 99 94 88 86 86 87 90 91 89 82 80 79 78 84 87 81 83 86 83 82 82 83 85 84 85 83 80 80 80 84 86 84 80 80 82 80 79 78 80 82 81 80 80 77 76 75
22 22 16 16 17 18 26 23 31 50 40 33 42 29 22 37 57 70 71 73 77 82 87 85 82 81 81 88 89 86 87 89 91 93 95 96 93 90 89 91 91 92 96 98 97 95 91 92 97 99 100 98 90 84 84 83 84 88 91 89 85 85 87 86 86 87 85 87 88 85 83 82 83 85 83 83 82 81 82 83 85 85 82 81 82 82 82 82 81 81 82 81 80 80 78 77 75
16 16 13 17 31 42 52 54 48 44 39 44 46 29 20 34 57 75 79 79 81 88 96 94 90 89 87 88 88 88 90 90 91 93 95 96 93 90 89 92 94 96 98 98 96 94 91 96 100 99 100 97 89 83 81 80 81 87 89 87 87 88 92 93 89 88 91 91 89 85 83 83 85 85 83 82 80 80 83 86 86 84 82 83 82 81 81 81 81 80 80 79 78 77 76 76 75
15 19 16 19 41 51 54 63 53 37 44 56 46 25 25 41 59 74 80 84 87 91 96 98 96 94 92 90 89 89 90 90 91 92 94 94 95 96 97 97 95 95 95 96 100 96 91 98 100 99 100 96 89 84 81 82 85 89 90 87 86 85 89 94 89 87 91 92 89 84 86 91 91 88 84 80 78 81 84 86 86 85 85 82 80 81 81 80 80 79 78 78 77 77 77 77 77
16 27 29 25 35 40 43 52 48 42 49 49 33 21 35 57 65 73 85 91 90 88 90 93 94 94 93 92 91 90 90 91 92 94 95 95 96 98 100 99 95 94 91 92 98 89 83 97 101 99 100 95 90 87 85 86 87 89 90 88 87 83 85 89 86 84 86 88 87 86 90 93 92 90 84 77 78 82 83 84 85 85 84 82 81 81 80 77 78 79 77 75 75 78 78 77 77
18 26 33 33 37 38 39 45 45 42 43 44 34 24 44 70 71 75 90 91 87 87 87 88 88 90 92 90 90 90 90 93 94 96 96 96 97 98 99 100 97 95 89 85 89 82 82 98 102 99 100 98 95 92 89 88 86 87 88 87 87 86 89 91 86 82 83 84 83 85 87 87 87 86 81 78 79 80 81 82 83 82 79 79 80 79 76 75 76 77 76 76 76 79 79 77 77
19 23 29 34 45 48 42 44 43 36 37 46 41 27 51 84 82 78 85 84 84 88 87 86 85 86 87 85 86 87 89 91 92 93 94 94 97 98 99 99 92 89 84 79 83 87 93 100 99 99 100 99 99 97 94 93 91 91 92 89 89 92 94 93 90 86 81 80 81 82 84 83 84 82 79 79 79 78 79 80 80 79 77 77 75 73 73 73 74 76 78 79 79 81 79 77 77
22 22 23 24 35 43 44 51 58 54 42 38 46 51 64 80 79 77 82 82 86 87 84 84 84 84 85 85 86 87 88 90 89 90 90 90 94 97 99 100 94 90 88 84 87 93 98 100 98 100 100 98 100 99 98 99 97 97 96 94 95 96 92 85 89 90 81 76 79 79 82 82 81 80 78 78 77 76 79 79 78 78 77 75 72 71 72 73 74 76 80 82 82 82 80 78 78
30 22 21 21 21 25 35 45 51 55 43 35 60 83 77 68 70 78 87 88 90 89 84 85 87 86 87 89 89 88 88 90 89 89 89 88 91 95 98 100 99 97 96 95 96 94 93 96 97 95 94 96 98 99 100 100 98 98 99 99 98 98 92 82 84 87 80 76 77 78 81 82 79 78 77 76 76 77 78 78 77 77 76 74 72 73 73 74 76 78 81 84 83 83 80 79 80
28 23 21 21 17 24 45 53 43 41 44 47 72 93 84 73 74 82 92 95 95 92 86 87 90 87 88 88 87 87 87 89 88 89 90 88 89 93 95 98 100 100 100 100 97 89 87 91 92 88 89 94 99 100 97 91 84 84 92 100 99 97 94 88 85 83 80 80 78 78 81 79 76 77 75 75 77 76 77 77 75 75 75 74 74 74 75 77 78 80 83 84 82 82 82 82 82
19 22 20 22 30 39 46 46 40 40 46 52 70 88 89 87 89 91 96 98 97 94 88 88 91 91 91 90 87 86 85 86 89 90 91 89 88 91 94 96 98 99 100 100 97 92 89 88 85 84 88 94 99 98 92 82 73 73 85 97 100 96 94 93 90 83 82 86 82 79 80 78 75 74 73 75 76 75 76 75 72 73 74 74 73 73 76 80 81 81 83 84 83 82 83 83 84
14 16 17 27 43 47 40 36 39 43 49 56 66 80 90 95 96 93 94 96 95 94 93 92 93 93 93 92 90 88 85 85 88 89 91 91 89 90 92 94 96 98 99 100 99 98 96 93 88 87 90 94 98 98 94 88 83 84 91 97 99 97 93 93 90 83 84 90 89 83 79 75 73 72 72 74 74 73 74 72 71 73 72 72 72 71 74 77 79 79 80 82 83 83 83 83 85
20 27 38 43 39 36 36 39 40 39 49 66 71 75 87 94 91 89 93 96 93 93 94 93 93 91 89 89 88 87 85 83 84 84 87 90 89 89 91 92 93 95 97 99 100 100 99 99 97 94 94 97 99 99 98 95 90 91 96 98 99 98 95 92 85 82 90 94 91 89 82 72 71 71 72 73 72 71 72 70 71 72 71 71 70 70 71 71 73 77 80 82 83 83 84 83 85
40 51 62 59 46 37 36 41 48 47 51 66 74 82 93 94 89 89 93 95 92 92 92 91 90 87 85 85 84 83 83 81 80 81 83 85 86 87 89 91 92 94 96 98 99 100 99 100 100 99 98 97 96 97 98 96 93 96 98 98 97 96 96 94 85 85 95 90 86 93 88 73 70 72 72 72 71 70 70 70 71 71 71 71 68 68 69 67 68 74 78 80 82 82 83 82 83
Wind_Speed
3 2 1 2 4 5 3 2 1 2 2 2 4 2 4 6 5 4 6 4 1 3 4 2 4 2 4 5 8 8 6 1 3 4 3 1 13 25 22 26 34 32 30 28 26 24 22 23 24 27 26 24 22 20 21 22 23 23 23 23 22 22 21 22 22 22 22 23 22 22 21 22 23 23 23 23 23 22 22 22 22 22 21 21 20 19 19 18 17 17 17 15 15 16 16 17 18
1 1 2 3 4 3 1 2 2 2 2 3 4 4 5 4 2 5 6 5 4 4 3 1 7 8 8 8 7 6 7 5 4 4 3 12 21 20 24 32 35 33 31 29 28 25 23 22 23 26 25 24 22 21 21 21 22 21 21 22 22 21 20 21 21 22 22 22 22 21 21 22 23 23 23 24 22 21 22 21 21 21 20 21 20 19 18 17 16 16 16 15 14 14 14 15 17
1 2 2 4 3 2 0 2 2 1 1 3 4 4 4 3 4 7 7 6 8 6 2 3 8 5 5 6 4 4 3 4 7 6 5 15 16 16 26 31 32 32 31 29 28 26 24 23 24 25 25 24 22 21 21 21 22 20 21 22 21 20 19 20 21 21 21 22 21 20 21 22 23 23 24 24 21 20 21 21 20 20 19 19 19 18 17 16 15 15 15 14 14 13 14 15 17
2 2 1 3 3 2 3 2 2 3 3 4 4 5 3 4 7 8 7 7 7 3 1 3 5 2 5 8 3 4 4 4 7 8 5 9 15 20 27 29 31 30 28 28 27 26 25 23 24 24 24 24 22 21 20 21 22 20 21 21 21 20 19 19 20 20 21 21 20 19 20 22 24 24 24 23 20 20 21 20 19 18 18 17 17 17 16 15 14 16 16 15 15 15 16 16 16
3 1 0 3 3 1 2 1 2 3 4 3 2 6 5 5 6 6 6 6 6 3 2 4 3 2 5 5 1 3 4 6 6 8 8 12 24 28 28 30 31 29 26 25 26 26 25 24 23 23 23 23 23 21 21 21 22 21 21 21 20 19 18 18 18 19 20 20 19 18 19 22 24 24 23 21 19 20 21 20 18 17 17 16 16 16 15 14 13 16 16 16 16 16 16 16 15
3 3 2 2 1 1 1 2 2 3 5 4 3 8 8 6 6 6 5 6 6 6 4 4 4 3 4 3 2 3 3 8 6 8 14 20 28 30 30 31 31 29 27 25 26 26 24 24 23 22 22 23 23 21 21 21 22 21 20 21 20 18 18 17 17 18 20 20 19 18 18 21 23 22 21 19 19 20 20 19 17 16 16 15 15 15 14 13 12 15 16 16 16 15 15 14 14
3 4 2 2 1 0 2 3 4 5 5 6 5 9 11 10 7 4 3 3 4 3 4 5 8 9 2 1 2 6 5 11 9 13 24 28 30 31 31 31 31 30 28 27 26 25 24 24 23 22 21 22 23 22 21 21 22 21 20 21 19 17 17 16 17 18 19 19 18 18 18 21 21 21 20 18 19 20 19 18 16 16 15 15 15 14 13 12 11 14 16 15 15 15 14 13 13
4 2 1 3 1 1 2 3 4 4 4 5 6 9 13 13 8 3 2 2 1 2 5 5 7 8 1 2 2 6 11 16 19 26 33 33 32 31 31 31 31 28 27 27 26 24 23 22 22 21 20 22 23 22 22 22 22 20 21 21 19 17 16 16 17 18 18 17 17 17 18 19 20 20 19 18 19 18 17 17 16 15 14 14 14 13 12 11 11 12 15 16 16 15 13 13 12
3 1 1 3 1 2 1 4 4 4 5 6 7 10 13 12 7 2 1 1 1 1 4 4 4 6 2 6 4 4 11 22 30 34 35 33 32 31 30 30 30 28 26 25 25 24 23 22 21 21 20 21 22 23 22 21 21 20 21 21 18 16 15 16 17 17 17 17 16 16 17 18 19 20 19 18 18 17 16 16 15 14 14 13 12 12 11 11 11 11 15 17 16 15 13 13 12
2 1 1 1 2 1 4 3 4 4 6 7 9 12 10 8 3 1 0 3 2 2 4 4 6 7 6 6 3 2 10 27 33 31 32 33 32 30 29 28 29 28 26 25 25 24 22 21 21 21 20 20 21 21 22 21 20 19 21 21 18 16 16 16 17 17 17 17 17 17 17 19 20 20 19 17 16 16 15 15 14 14 13 12 12 12 11 12 12 12 15 18 17 15 13 13 13
2 1 2 1 0 2 3 4 5 5 8 7 8 10 7 3 1 2 2 2 2 4 5 4 7 7 7 4 2 5 16 27 30 28 30 32 31 30 28 27 26 27 27 26 25 23 22 21 21 21 20 20 20 20 20 19 19 19 21 20 17 16 16 17 17 16 17 19 18 18 19 20 20 19 18 16 16 15 14 14 14 13 12 12 12 11 11 12 13 12 15 19 18 15 14 14 13
2 1 3 1 2 3 4 4 5 7 9 6 4 5 2 2 4 2 2 1 3 5 3 2 6 5 6 2 1 8 16 20 24 28 29 31 31 29 29 27 25 26 27 25 25 24 22 21 20 20 19 20 19 19 19 18 17 19 22 20 18 17 17 18 17 17 20 20 19 19 19 20 19 19 18 16 16 15 14 14 13 13 12 12 12 11 12 13 13 13 17 20 18 15 15 14 14
2 2 4 1 3 3 4 4 6 6 7 4 3 3 1 4 2 5 2 1 3 5 2 4 9 5 4 2 2 6 10 15 22 25 26 29 30 30 30 27 25 25 27 26 25 24 22 21 20 19 19 19 19 19 18 18 18 20 22 21 19 18 18 18 17 20 21 20 19 19 20 20 18 17 17 16 15 13 13 13 12 12 13 12 11 11 12 13 14 15 17 20 19 16 15 14 14
3 2 4 1 2 2 4 3 4 4 5 5 2 4 2 2 3 2 3 5 6 4 4 6 10 7 3 2 3 4 8 17 18 17 21 27 30 31 30 26 25 25 27 27 25 24 23 21 20 19 19 18 18 18 18 19 20 22 23 21 19 19 19 18 19 21 21 20 18 18 20 19 17 16 15 15 14 12 12 12 11 12 13 12 11 11 12 13 14 16 18 20 19 17 15 14 16
5 1 3 1 3 2 3 4 4 4 4 5 3 2 1 0 2 2 3 2 4 5 6 4 5 4 5 7 5 6 12 19 19 20 22 25 30 31 29 26 24 26 27 26 25 25 24 22 21 20 19 18 19 19 20 21 21 23 24 22 20 20 19 19 20 21 20 19 18 19 19 19 17 15 15 15 14 12 12 11 10 12 13 12 12 11 12 13 14 16 18 20 19 17 15 15 17
4 2 2 1 3 2 3 4 2 2 4 6 3 1 2 3 1 1 2 4 4 3 3 2 2 1 8 8 7 14 21 24 23 25 26 26 29 30 27 26 25 25 25 26 26 26 25 24 23 22 22 21 22 22 22 23 23 24 24 23 21 20 20 20 21 21 20 19 18 19 19 19 16 14 14 14 14 13 12 11 10 12 13 12 12 11 12 13 14 15 18 20 19 16 16 16 17
2 2 2 3 3 3 4 4 0 1 4 5 5 5 4 5 6 1 1 6 7 3 4 4 4 4 6 7 17 28 28 25 27 31 30 26 27 28 26 26 27 26 24 25 26 27 27 26 27 27 27 27 26 25 25 25 25 25 25 24 22 21 21 21 22 21 19 19 19 19 19 19 17 15 14 14 14 13 12 10 10 11 11 12 12 11 12 13 14 14 17 19 18 17 16 16 16
2 2 3 5 4 4 4 3 3 1 2 5 5 3 5 3 6 4 5 8 7 7 6 7 10 11 15 21 30 32 27 26 28 33 31 27 26 24 24 24 25 25 24 25 27 30 30 30 32 33 34 32 31 30 28 28 27 27 26 25 24 22 22 22 22 21 20 19 19 20 20 19 17 15 14 14 15 14 13 11 10 11 11 12 13 12 12 13 15 15 17 19 19 17 15 15 15
4 3 3 5 5 4 2 3 6 4 2 2 4 2 5 1 5 3 4 4 5 8 6 8 13 14 18 23 28 29 27 26 27 30 26 24 24 21 20 20 22 24 26 29 31 32 32 33 31 30 32 32 31 29 29 29 28 28 27 26 25 24 23 23 23 23 21 21 20 20 20 18 17 15 13 13 14 14 13 10 10 12 12 13 14 13 11 12 15 17 17 18 18 16 14 14 14
4 4 4 6 5 4 5 4 7 7 6 1 4 3 4 2 3 2 1 2 4 6 4 7 11 12 14 14 19 24 25 23 23 24 22 22 25 23 24 25 24 25 30 35 35 33 33 32 28 23 24 28 28 26 27 27 27 27 27 26 25 24 24 24 24 24 23 22 21 20 20 19 17 15 13 12 13 14 13 11 10 12 13 13 14 14 12 12 14 16 17 17 16 14 13 13 12
2 5 5 6 4 5 8 6 7 8 4 3 2 5 6 5 2 2 2 3 2 4 4 8 14 15 14 12 14 18 19 19 18 20 22 22 23 24 26 29 31 32 33 34 36 37 36 34 32 29 26 27 28 26 27 26 26 27 26 26 25 25 24 25 24 24 23 22 21 21 20 19 18 16 15 14 14 15 14 12 11 12 14 14 14 14 13 12 12 15 16 15 14 13 12 12 9
2 4 6 7 5 5 9 6 6 6 1 3 3 4 3 4 3 3 4 4 3 6 5 10 17 17 17 14 13 14 14 13 15 18 21 21 22 22 22 24 29 33 34 36 39 40 37 33 32 32 31 29 27 27 27 26 26 27 26 26 25 24 24 24 24 24 24 23 22 22 21 20 19 18 17 16 15 15 14 12 11 12 14 14 14 14 14 12 12 14 15 15 13 11 11 9 6
4 6 5 8 8 6 9 4 4 5 3 3 2 1 1 4 4 3 2 4 6 6 5 11 14 15 17 15 13 13 12 11 13 17 20 22 23 23 24 25 27 31 33 33 30 28 29 27 27 30 31 30 28 26 26 26 26 26 26 24 24 24 23 23 24 24 24 24 23 22 22 21 20 19 18 17 16 15 13 11 10 11 13 14 13 13 14 13 12 14 15 13 11 9 9 8 5
6 7 6 8 8 8 10 6 5 6 6 6 4 2 1 1 2 3 4 6 5 3 9 14 12 13 14 13 12 12 11 11 14 18 22 26 28 28 28 27 25 24 25 24 19 20 25 25 26 29 30 30 29 27 26 26 25 25 24 22 22 23 22 23 24 24 25 25 24 23 23 22 21 21 19 17 16 14 12 10 9 10 12 13 13 12 14 14 13 13 14 12 10 7 6 7 7
7 9 9 7 7 9 10 7 7 6 5 5 6 4 5 6 3 1 6 9 2 8 12 14 12 12 11 11 12 11 10 12 15 17 19 24 27 27 24 22 21 19 21 23 21 22 25 25 27 29 31 31 29 28 27 26 25 24 23 22 23 23 22 23 23 23 25 24 24 23 23 23 22 21 20 18 16 14 12 11 10 11 13 13 13 13 13 14 13 13 13 12 9 6 5 8 9
6 9 9 7 7 7 8 6 6 5 4 4 5 3 6 5 1 2 8 9 3 12 13 13 13 11 9 10 11 11 11 12 14 16 19 24 26 25 23 21 22 23 24 24 24 24 24 26 28 29 31 30 28 28 27 26 25 24 23 22 23 23 23 23 23 23 24 24 24 23 23 22 21 21 20 18 17 15 14 13 12 13 14 13 12 13 13 14 13 13 13 12 9 6 6 7 10
5 7 7 8 8 7 5 4 5 3 3 4 5 4 6 3 2 3 9 6 7 13 12 12 13 12 10 10 9 9 10 11 15 17 18 20 23 25 25 23 24 24 23 22 25 25 24 26 27 29 30 29 28 27 27 26 25 24 23 23 23 24 24 23 23 23 24 24 23 22 22 21 21 20 19 20 19 17 15 14 12 12 13 12 11 11 12 13 12 12 11 10 7 7 7 7 10
6 7 7 7 5 5 4 4 4 1 1 4 7 2 5 3 2 6 9 3 10 13 12 12 11 10 10 10 8 6 7 12 18 18 17 18 21 24 26 27 27 24 24 25 26 25 25 26 27 28 29 28 26 25 27 27 26 25 23 23 23 24 24 24 24 24 24 23 22 22 22 21 21 21 20 20 19 17 15 13 12 11 11 11 10 9 10 12 11 10 9 9 7 7 8 9 11
6 6 5 7 5 5 6 4 3 1 2 5 7 3 6 4 5 9 9 2 11 13 11 11 10 8 9 8 7 5 7 13 17 17 19 22 23 26 28 29 30 27 27 28 27 25 26 26 26 27 28 28 26 25 27 28 27 25 24 24 24 24 24 24 25 24 24 23 22 21 22 22 22 21 21 21 19 17 15 14 13 11 9 11 12 10 10 12 12 11 10 11 9 8 10 13 13
5 3 2 3 6 5 6 3 1 1 3 6 7 2 6 7 9 11 8 2 11 12 11 10 8 7 7 6 5 5 7 11 13 18 23 24 26 29 30 30 30 30 29 28 27 27 27 26 27 27 28 27 25 24 26 28 28 26 24 24 23 24 24 24 25 25 25 24 22 22 23 23 23 22 21 21 19 18 16 16 15 13 11 12 14 12 12 12 13 14 12 11 11 11 14 15 13
3 2 1 2 2 5 5 2 3 3 2 8 8 3 7 9 10 11 8 5 12 11 11 10 8 7 6 6 5 5 5 7 11 18 23 23 26 29 30 31 30 30 30 29 30 29 28 28 28 27 28 27 25 25 27 28 29 26 25 24 23 23 23 24 25 25 26 25 23 23 24 24 23 23 22 21 20 18 17 17 16 15 14 14 14 15 14 13 13 14 12 12 13 14 16 15 12
2 1 3 2 3 5 6 2 7 6 2 7 8 4 7 9 9 11 8 6 12 12 11 10 8 8 8 6 5 6 5 7 10 16 20 20 24 27 30 32 32 31 31 31 30 28 28 29 28 28 28 27 25 25 27 28 28 27 26 25 23 22 22 23 23 24 25 25 24 24 25 24 23 24 23 21 20 19 17 17 17 16 16 15 15 15 15 13 12 13 12 11 13 16 16 15 12
3 2 2 3 4 3 5 4 7 10 3 4 8 5 5 6 7 8 6 2 9 11 11 11 10 8 8 6 6 6 6 6 8 14 18 19 22 25 29 32 32 31 31 31 31 29 29 30 29 29 28 27 25 26 27 26 26 26 26 25 23 22 22 23 23 23 24 25 25 25 24 23 24 24 23 21 21 20 18 18 18 16 16 15 14 15 15 13 12 13 14 11 11 14 16 15 13
4 1 1 4 3 2 2 6 6 7 7 6 8 7 6 6 6 6 6 5 7 13 13 11 9 7 6 6 7 7 8 8 8 13 17 18 20 23 27 30 31 31 30 30 31 32 32 32 31 29 28 26 25 27 26 24 25 26 25 24 24 23 23 23 22 22 23 25 26 26 23 21 23 24 22 22 21 21 19 18 18 17 16 15 15 16 15 13 12 13 16 14 10 12 15 17 16
3 1 1 4 4 3 4 5 5 4 8 9 10 9 10 8 7 7 8 4 4 11 13 12 10 9 8 7 8 8 8 8 9 12 16 18 20 21 25 27 29 29 29 29 31 33 32 32 30 27 26 24 26 30 26 23 24 25 25 24 24 23 23 23 22 22 22 24 26 26 23 20 22 23 23 22 21 21 20 20 18 18 17 16 16 16 15 13 13 13 16 16 12 11 14 17 18
5 3 2 3 5 5 6 7 7 5 9 8 10 9 9 8 7 7 8 3 8 6 6 9 10 9 8 7 6 7 9 8 9 13 16 18 20 22 24 26 28 29 30 30 30 31 30 29 28 26 26 26 28 27 20 19 24 23 23 24 24 22 21 21 21 22 22 23 25 25 22 21 22 23 23 22 20 21 22 21 20 20 18 17 17 16 16 14 15 16 16 17 16 15 15 17 18
4 2 1 5 7 6 6 7 9 5 8 5 8 9 7 8 8 6 5 3 8 7 4 4 6 8 8 8 7 7 8 7 9 13 16 19 20 24 25 27 29 28 29 30 29 28 28 28 28 27 27 27 26 23 18 21 25 22 20 22 21 19 19 18 19 21 23 23 24 24 21 21 23 23 23 22 21 21 22 23 22 21 19 17 18 17 15 15 15 16 16 17 20 20 18 17 19
5 4 2 6 7 6 7 7 8 1 6 3 5 6 5 7 7 6 3 2 3 9 10 6 7 9 8 8 9 8 7 5 8 10 15 20 22 25 26 27 29 27 27 28 28 27 27 28 29 28 28 26 24 25 25 25 26 24 21 21 19 17 18 17 17 20 22 23 23 23 21 21 23 24 23 22 22 22 23 24 24 22 20 18 18 16 15 15 16 16 18 20 22 21 19 19 20
5 3 1 5 5 4 6 5 7 5 4 2 3 6 5 7 6 7 4 1 1 4 10 12 12 11 9 10 10 8 7 7 7 8 12 18 23 26 25 25 26 27 27 28 28 27 27 27 28 27 27 25 23 26 28 25 24 25 22 21 21 21 21 19 17 18 20 22 22 22 22 22 22 23 23 23 22 22 23 24 25 22 20 19 19 17 15 16 17 18 21 23 22 19 18 19 19
4 3 2 4 4 1 4 5 8 7 2 3 5 4 3 6 5 7 6 3 4 5 2 9 11 10 10 10 9 10 11 10 10 8 9 14 21 23 23 24 25 26 27 27 27 27 27 27 27 27 25 25 24 26 28 22 20 22 19 18 21 22 21 20 18 17 19 22 22 22 23 23 23 22 22 23 22 21 22 23 23 22 19 19 19 18 17 18 19 19 20 24 24 22 20 20 17
4 5 5 4 4 3 5 3 6 7 4 2 6 5 4 5 6 7 6 7 9 10 8 3 1 3 4 2 1 4 6 8 10 10 10 11 16 20 22 24 24 23 25 25 25 26 27 27 27 27 25 25 24 26 28 22 18 21 19 18 19 18 17 18 18 18 20 22 23 23 23 23 23 22 22 22 21 21 21 21 22 21 19 18 19 18 18 19 18 18 19 22 25 25 23 23 18
4 5 7 7 5 4 5 3 5 6 5 3 4 4 5 5 5 7 5 9 11 11 12 10 8 5 1 2 3 3 3 4 6 8 10 10 12 17 19 21 22 22 22 23 24 24 25 25 26 26 26 26 25 25 29 26 22 24 23 21 22 20 19 21 22 23 23 24 24 24 24 23 23 23 22 21 20 20 20 20 21 20 19 19 18 16 17 19 18 18 19 21 23 24 25 24 19
3 6 7 6 3 2 4 3 5 3 2 4 3 5 2 5 6 5 5 10 11 11 12 11 10 9 6 3 2 6 7 6 6 7 8 9 11 13 15 19 21 21 21 22 23 23 24 24 25 26 26 26 26 27 31 30 27 27 27 27 28 26 24 25 26 25 25 24 23 23 24 24 23 22 21 21 20 19 19 20 20 20 21 20 17 16 17 19 19 19 20 20 21 22 24 24 21
4 6 5 3 2 3 5 1 4 3 2 4 5 4 3 2 4 5 8 12 12 13 12 12 12 12 11 9 5 3 7 7 8 9 9 9 9 8 8 11 12 14 19 23 25 25 26 26 26 26 27 28 28 28 31 31 29 30 30 29 29 29 29 29 27 24 23 23 23 23 24 24 23 22 20 20 20 19 18 19 20 20 21 19 17 17 18 19 19 19 19 19 19 21 21 22 22
6 7 6 4 4 3 4 1 4 2 2 3 7 2 4 2 5 6 7 12 12 11 11 12 13 13 13 12 10 7 5 4 4 3 2 2 4 5 3 2 5 9 16 22 25 27 29 30 31 30 29 30 30 30 32 31 31 33 32 31 30 30 31 29 27 25 23 25 24 23 24 24 23 21 20 20 19 18 19 19 19 20 20 19 18 17 18 19 19 20 20 19 19 20 19 20 21
6 5 4 2 1 1 3 3 4 3 4 2 7 1 3 2 5 7 6 8 7 6 8 9 11 13 13 13 13 11 10 8 8 8 7 9 12 11 6 3 6 7 14 24 26 27 30 32 33 34 33 32 32 32 33 32 33 34 33 33 31 30 29 27 25 25 25 26 25 24 24 24 23 21 20 20 19 19 19 18 19 20 19 19 18 17 18 19 18 19 20 19 19 19 19 20 21
3 3 2 1 4 4 4 3 4 4 2 5 6 2 6 2 5 6 4 5 3 4 6 8 10 12 12 12 12 12 11 9 9 10 10 12 16 15 11 8 7 5 6 22 28 27 28 28 28 30 32 34 33 33 34 33 33 35 33 33 33 30 28 27 25 25 26 26 25 25 25 23 23 22 20 20 20 19 19 19 19 19 18 17 18 19 19 19 18 18 19 18 19 18 18 19 20
5 4 1 0 4 4 3 5 4 4 2 7 6 2 8 4 2 4 6 6 6 7 7 8 10 11 11 11 11 11 10 10 9 9 9 11 14 15 15 15 13 11 7 4 14 22 26 25 25 27 31 34 34 33 33 32 33 34 33 32 33 31 28 28 28 27 27 27 26 25 24 21 21 21 20 20 21 20 20 20 20 19 17 17 19 20 19 19 18 18 18 19 19 19 18 18 19
5 5 4 3 1 2 1 3 1 2 4 5 3 3 6 4 2 4 7 8 8 8 8 8 9 10 11 10 10 10 9 10 10 8 8 8 9 11 13 15 11 8 9 8 5 21 28 25 24 28 31 33 34 33 32 31 32 33 32 32 31 31 29 28 29 29 29 29 28 26 24 22 21 22 20 20 21 21 21 20 20 19 18 17 18 19 19 18 17 18 19 20 19 19 18 18 19
4 5 4 5 3 2 1 3 0 1 5 4 2 3 4 3 3 6 8 8 8 8 8 8 9 10 10 10 10 10 10 11 9 8 9 7 7 9 10 14 12 10 12 9 16 28 26 17 17 22 28 30 32 33 32 30 30 30 30 31 30 29 27 25 26 28 29 29 29 27 26 24 24 24 23 23 23 22 20 19 18 18 18 17 17 18 18 18 17 17 18 19 19 18 17 17 18
4 5 5 5 4 4 3 2 2 3 4 4 3 2 3 4 3 6 7 7 7 8 8 8 10 10 9 10 13 13 13 12 10 11 11 11 11 11 8 11 10 6 6 7 17 20 11 5 7 11 17 23 25 28 30 29 29 29 28 28 28 26 24 23 23 25 28 30 29 28 26 24 25 26 25 24 24 21 19 19 18 18 18 17 17 19 19 19 17 17 17 18 18 17 16 16 17
3 3 5 2 4 5 3 3 5 4 1 2 1 2 1 4 5 5 6 8 8 8 9 11 11 9 9 11 12 12 12 12 12 13 14 15 18 17 13 7 3 4 4 6 12 12 9 7 5 6 6 9 13 16 19 19 18 21 24 26 26 24 25 26 25 25 27 30 29 28 26 25 25 26 25 25 23 21 20 21 20 20 20 17 17 19 20 19 17 16 17 19 18 17 16 16 16
1 2 2 3 5 8 4 2 1 4 2 2 1 3 1 3 4 4 7 8 8 8 10 10 9 9 10 10 10 10 10 10 11 11 11 14 18 19 18 14 8 3 1 2 5 8 9 7 5 4 4 8 12 12 12 12 10 12 17 21 22 22 25 28 27 26 28 29 29 28 27 26 26 26 26 24 22 21 22 22 21 21 21 18 18 19 18 18 17 16 18 19 18 17 16 16 16
4 2 5 1 4 4 4 2 1 4 2 4 2 5 3 2 1 3 7 8 7 8 10 9 8 9 10 10 10 10 10 9 9 9 9 12 16 18 19 20 17 11 9 6 3 6 9 10 9 8 10 14 16 13 15 19 19 19 19 20 21 21 23 26 27 28 28 28 29 29 29 28 28 27 25 24 23 22 23 22 21 21 20 19 18 18 18 18 17 16 17 18 17 17 17 16 17
4 5 4 4 3 1 1 3 2 2 3 1 3 3 1 1 1 2 7 7 6 8 10 10 10 10 9 9 9 10 10 9 8 8 7 9 13 17 18 21 22 19 17 12 6 6 8 10 12 13 14 15 16 18 21 25 26 27 26 24 24 23 23 25 26 28 29 29 31 32 32 31 30 27 25 24 24 24 24 23 21 21 21 20 18 17 17 18 17 17 17 17 16 16 17 18 17
1 1 1 1 3 4 2 3 4 4 3 2 2 2 1 1 2 4 6 5 6 8 9 9 10 9 9 8 8 8 9 8 7 7 7 8 12 17 18 20 23 22 22 20 15 9 7 8 11 12 12 13 17 21 21 20 20 22 24 25 26 25 25 25 26 29 30 30 30 32 33 33 31 28 27 26 25 25 25 23 23 22 21 19 18 17 17 17 17 17 17 17 17 17 17 18 18
1 1 1 3 2 1 2 1 2 4 4 3 3 1 2 1 2 4 6 6 7 9 8 8 9 10 11 10 9 8 8 8 8 7 7 8 12 16 18 20 22 23 23 23 21 18 13 10 10 10 9 11 15 17 16 16 18 20 22 24 26 27 28 28 31 32 25 19 21 27 31 34 32 30 28 27 26 25 24 23 24 22 20 18 17 17 17 16 16 16 17 17 18 18 18 17 17
5 3 2 1 1 2 3 1 2 2 4 4 5 3 2 1 2 5 6 8 8 8 8 9 10 11 11 10 9 9 8 8 8 8 6 8 11 15 18 21 23 23 22 21 21 21 20 17 14 10 8 9 12 13 14 17 19 20 22 23 24 27 29 30 32 30 20 15 20 25 29 34 33 31 29 27 27 25 23 24 24 21 20 18 16 17 18 16 15 15 17 18 19 19 17 16 16
Wind_Direction
323 317 20 38 359 7 358 80 69 321 84 278 265 228 255 236 216 262 274 269 301 272 255 285 339 33 95 113 127 102 61 88 164 130 184 220 136 152 161 158 154 151 149 148 152 155 158 156 153 156 158 156 156 155 151 148 147 144 140 138 134 131 129 127 126 124 122 120 119 116 114 113 112 111 109 109 110 108 106 103 100 97 95 94 94 95 95 95 95 96 97 101 100 99 99 96 98
317 216 55 15 2 32 285 93 88 311 45 297 265 187 253 272 220 222 216 200 212 241 254 101 69 70 94 119 125 87 44 31 92 106 114 116 118 136 148 152 152 150 148 148 152 155 160 158 154 157 159 158 157 155 151 148 147 143 139 138 135 132 130 129 127 125 123 120 117 115 115 113 112 112 111 112 113 112 109 106 102 99 97 96 94 92 92 92 94 99 102 105 102 100 96 96 101
236 176 52 15 16 73 38 46 97 165 155 253 272 226 249 282 226 213 199 193 220 226 222 92 76 65 80 75 44 61 86 57 83 93 110 121 113 125 139 145 147 148 147 148 153 156 160 160 157 158 159 159 157 156 151 148 146 141 139 139 137 134 132 131 128 126 124 121 117 116 117 113 112 112 112 115 117 115 112 109 105 102 101 98 95 92 90 88 89 99 108 108 107 104 101 106 110
205 178 21 38 47 44 59 55 149 149 198 224 267 266 251 220 212 218 213 209 231 232 166 82 61 348 74 85 51 68 117 100 98 112 112 123 127 135 139 141 143 142 144 148 153 156 160 160 159 159 159 159 157 156 152 149 147 143 143 142 140 137 135 134 129 126 124 121 117 118 118 114 113 113 116 121 121 116 114 111 107 106 104 101 98 96 94 90 90 103 114 115 115 114 112 115 115
193 180 332 79 82 15 97 169 160 155 213 193 229 281 284 229 219 239 237 232 250 238 157 99 89 334 72 88 99 95 116 110 104 109 98 120 135 139 139 141 142 140 142 148 152 155 158 158 158 159 158 159 158 157 154 152 151 148 148 147 144 140 137 136 130 127 124 121 118 119 119 117 117 119 124 126 121 116 116 115 112 109 106 104 100 99 97 93 96 109 120 122 121 120 119 119 117
170 116 100 93 125 211 127 239 224 225 231 175 237 280 284 271 241 237 237 248 255 208 161 94 114 99 74 51 58 56 113 127 110 105 115 130 139 140 140 141 142 142 145 148 152 154 154 156 157 158 158 159 159 159 156 155 156 153 152 151 147 142 139 137 132 129 127 124 123 124 123 121 123 126 128 127 121 118 118 116 113 109 106 105 101 100 99 95 96 112 125 127 126 124 123 123 120
137 99 93 71 337 328 141 227 224 249 242 182 220 262 272 275 242 212 215 242 292 245 108 104 124 102 87 80 69 4 61 126 124 126 133 138 141 140 141 143 144 145 148 149 150 150 153 156 155 157 157 159 161 160 159 159 161 158 154 153 149 143 141 139 135 134 132 130 129 127 126 126 129 131 130 126 121 118 118 116 114 111 110 109 106 104 100 95 92 109 127 132 132 131 130 127 121
121 101 115 93 11 323 154 252 235 228 244 213 224 244 255 262 243 195 203 191 266 296 86 127 124 95 317 38 89 352 57 112 127 132 136 137 139 139 142 146 144 143 146 147 145 147 152 155 154 157 158 160 163 162 162 163 164 161 156 155 151 145 142 140 139 139 138 134 131 129 129 131 134 134 132 127 121 119 120 121 118 117 115 111 107 102 96 93 89 104 126 135 137 136 135 128 118
102 76 69 94 127 295 287 273 257 230 244 250 254 253 246 246 239 179 281 317 212 302 80 148 104 97 150 53 82 346 63 111 124 131 135 137 139 140 145 148 145 140 141 141 142 147 152 156 155 157 160 163 166 165 166 165 164 161 158 157 153 148 144 143 144 144 142 139 135 133 133 136 138 137 134 128 123 123 125 125 122 119 116 110 103 97 92 92 91 100 124 137 140 138 134 122 107
66 78 125 98 135 282 297 262 251 250 249 247 250 252 242 233 228 135 359 271 242 45 73 98 66 99 122 77 69 5 103 121 123 130 137 137 139 141 142 143 142 138 137 139 144 148 152 156 155 157 162 163 166 167 168 165 163 162 160 160 155 149 146 148 148 148 146 143 139 137 137 138 140 139 135 130 128 129 130 128 124 119 114 108 100 96 92 92 94 101 122 137 142 138 128 111 96
44 326 137 104 114 214 259 257 260 269 273 269 247 243 241 233 63 358 321 270 311 88 124 78 76 106 96 82 66 104 127 129 128 134 139 138 138 139 135 134 136 134 135 139 144 147 152 156 155 158 162 162 163 165 167 166 165 164 161 161 157 153 152 153 153 152 148 144 141 139 139 140 141 142 137 135 135 135 135 133 127 119 111 106 101 96 94 93 96 103 121 136 142 136 119 103 92
78 294 91 112 221 203 224 248 272 281 288 281 236 250 255 59 62 294 293 354 9 86 145 111 125 127 76 65 99 126 133 132 134 137 137 135 134 133 129 129 130 132 136 139 144 148 152 154 155 158 159 160 161 163 166 166 167 166 163 165 163 159 158 157 155 153 148 145 144 142 143 143 145 146 144 142 140 140 137 134 130 120 110 106 103 99 97 96 97 107 123 135 139 129 113 100 89
137 184 97 148 217 196 244 257 279 289 296 273 210 280 11 84 142 231 226 70 15 51 53 116 131 111 79 95 132 137 134 136 138 136 132 128 129 127 125 125 127 134 139 141 146 149 150 151 154 156 156 158 161 165 167 168 169 169 169 171 168 163 161 159 156 153 151 148 147 147 148 147 149 150 149 147 143 143 139 134 133 122 113 110 108 104 101 101 101 111 126 134 134 123 111 100 85
178 180 122 217 255 216 253 261 278 271 282 274 264 311 319 127 207 263 46 30 6 64 90 106 120 95 86 135 132 157 148 140 127 115 115 116 119 119 123 128 131 140 143 145 147 148 148 150 153 154 155 160 164 168 172 173 172 173 175 175 170 166 164 161 159 156 154 152 150 152 153 152 152 151 150 150 147 146 144 139 135 124 118 116 113 108 106 106 103 115 130 133 130 122 112 101 86
179 193 123 195 282 270 253 231 242 239 263 271 267 302 317 208 205 22 64 93 34 114 119 112 137 105 157 176 174 177 138 115 84 75 83 94 106 113 123 128 131 140 144 147 149 150 150 150 153 155 158 163 167 173 176 175 175 178 179 177 172 169 166 163 162 159 157 156 155 153 154 155 154 153 151 152 151 150 151 147 137 125 119 119 118 111 110 111 107 119 134 135 130 123 114 103 90
175 140 103 232 254 262 248 235 233 216 248 250 265 51 85 318 293 106 204 147 81 104 103 140 225 135 168 181 151 132 116 105 98 97 81 75 97 108 118 125 131 140 145 150 151 153 152 152 155 159 164 167 171 174 176 176 180 181 180 179 175 171 169 166 164 163 161 160 156 153 155 157 156 157 153 153 154 155 157 152 139 128 122 122 122 115 114 116 112 120 137 139 133 125 116 105 93
154 143 204 245 239 242 235 231 352 138 257 282 338 35 87 333 327 333 7 67 80 64 48 61 7 40 122 103 106 112 114 121 122 114 96 90 104 112 124 135 140 143 150 153 154 156 158 160 164 167 169 172 174 175 176 179 182 182 181 180 177 174 172 169 167 166 165 162 158 155 155 158 159 160 156 153 156 158 160 155 141 132 128 128 128 121 117 121 120 121 136 143 138 129 120 107 91
150 167 204 232 226 225 208 208 288 330 298 315 346 35 90 22 323 325 27 41 68 70 51 61 51 61 85 87 99 108 120 125 121 119 117 119 124 127 136 144 144 146 152 156 162 166 168 173 174 173 173 175 176 174 177 181 183 183 183 182 178 176 175 172 170 169 169 167 162 159 158 159 162 162 159 157 159 160 159 158 148 136 134 136 134 128 122 125 128 126 132 141 142 133 124 110 87
172 174 196 228 215 224 237 240 296 301 214 314 345 34 80 60 286 338 34 25 76 84 56 67 77 82 88 91 103 116 124 121 125 130 126 128 134 135 138 146 150 151 157 164 172 175 177 180 180 179 177 177 177 175 178 180 182 184 185 183 179 178 178 175 173 173 174 172 167 164 164 164 166 165 163 162 160 161 159 161 156 142 141 143 138 135 131 129 133 135 134 137 141 136 127 111 84
193 178 215 242 224 262 279 251 275 260 200 90 343 353 43 337 288 352 66 79 92 123 118 96 100 106 105 105 119 126 126 126 132 128 122 132 140 143 148 156 161 162 168 172 176 180 183 183 182 184 182 180 179 178 179 181 183 185 186 184 181 180 180 178 176 177 178 176 170 169 170 169 170 167 165 165 161 161 159 163 164 151 151 151 144 143 141 136 135 140 141 141 141 136 130 114 85
206 180 212 236 218 262 269 247 258 256 185 131 316 360 10 327 332 6 338 31 48 200 189 144 137 132 129 134 137 132 131 134 130 122 131 142 145 152 161 164 164 169 175 177 179 183 186 187 184 184 185 183 182 181 182 183 184 186 187 185 182 182 182 181 179 179 179 176 172 171 172 171 170 166 166 166 164 163 161 166 169 162 162 159 154 152 150 146 138 139 144 147 145 138 135 121 91
255 232 225 230 218 250 263 252 244 258 33 81 37 23 346 327 354 4 337 319 248 221 203 153 147 144 146 151 146 135 136 138 128 132 142 145 149 159 168 167 165 171 177 182 186 187 187 187 185 183 182 184 185 184 185 186 186 187 188 186 184 184 185 184 182 181 180 177 175 173 172 171 170 169 169 168 167 167 167 169 169 167 169 166 163 162 158 155 145 139 140 143 145 141 140 131 112
238 263 244 234 224 229 259 265 215 214 104 103 109 185 244 22 341 295 282 256 235 221 159 137 144 147 149 147 143 140 141 139 136 144 147 147 154 162 169 170 171 175 182 189 192 190 188 185 185 183 181 184 186 187 188 189 190 190 189 187 185 185 187 184 182 182 180 178 177 175 173 172 172 172 171 171 169 170 172 173 170 167 170 172 172 171 166 163 156 145 141 141 140 137 141 145 148
217 248 248 237 228 224 249 253 207 190 156 180 166 141 206 118 283 293 293 265 233 172 114 125 139 143 143 140 143 144 137 137 145 150 150 153 159 164 169 173 175 180 188 197 200 195 192 188 186 185 183 185 187 188 190 192 193 193 190 187 187 186 186 182 181 180 178 179 179 178 176 174 174 174 173 173 171 170 172 173 174 172 169 171 173 174 170 167 164 154 149 147 143 139 152 168 176
223 231 241 237 228 224 241 237 219 222 200 189 136 136 224 211 200 234 268 274 212 120 115 127 135 135 142 146 146 142 135 142 149 147 147 153 157 160 169 175 176 184 193 199 203 199 197 194 190 187 186 188 189 189 191 193 194 193 189 188 188 187 186 183 182 180 178 180 181 180 179 177 177 176 173 172 168 166 164 160 163 161 160 164 167 171 171 171 171 164 159 157 154 153 167 181 189
227 224 240 240 243 240 243 241 230 239 228 179 132 179 248 236 218 249 248 257 146 121 126 134 137 141 153 154 152 149 147 151 152 147 145 152 154 154 165 176 181 189 196 201 203 204 203 198 194 190 188 189 190 190 190 192 193 192 190 191 191 189 188 187 185 183 181 182 182 183 184 182 179 175 171 168 161 154 151 149 148 147 149 154 155 158 161 165 169 165 165 167 169 178 183 189 194
260 252 255 243 251 258 241 244 250 246 238 203 157 212 263 248 188 255 265 251 134 124 134 144 146 154 162 160 160 156 151 151 153 148 143 153 158 156 162 172 182 191 198 203 205 206 205 200 197 193 191 191 191 190 189 191 193 192 191 194 193 191 191 191 190 188 185 185 185 186 188 186 180 174 171 167 159 151 150 151 150 151 153 153 149 151 154 156 161 164 170 175 178 191 194 197 200
293 269 272 265 277 283 251 242 250 252 257 189 139 189 277 278 196 226 255 235 130 134 145 155 158 160 164 163 162 161 148 147 152 151 153 163 167 164 164 172 179 188 198 203 204 204 203 201 198 196 194 193 192 190 190 191 194 193 192 195 195 195 194 194 195 194 191 189 188 188 190 188 182 177 172 168 162 156 157 159 160 161 163 166 160 160 163 162 168 174 180 186 189 197 200 198 197
280 250 258 286 341 323 269 259 239 140 228 177 117 1 294 265 245 234 244 186 129 143 153 163 170 165 163 162 163 167 148 148 156 165 171 170 168 166 167 175 180 185 195 200 201 200 201 200 197 198 196 194 193 191 191 193 195 195 195 196 197 197 195 196 197 197 196 194 192 192 192 189 184 180 176 172 167 162 165 171 174 174 176 177 170 166 166 166 175 176 172 185 194 191 184 182 183
278 265 216 298 355 319 265 246 245 217 210 151 112 322 274 254 253 253 260 145 127 147 164 172 174 162 162 168 164 162 149 157 170 177 179 172 167 168 168 176 182 185 189 193 196 198 198 196 195 197 197 194 192 191 193 196 198 198 197 196 198 199 197 198 198 198 199 198 197 196 195 192 188 185 181 177 173 170 174 179 183 185 180 175 172 172 169 164 170 168 163 173 180 174 167 168 174
305 318 14 23 360 283 271 182 192 236 202 124 117 232 256 263 262 264 267 146 134 154 173 176 174 163 166 178 164 149 153 178 190 185 183 176 168 168 169 173 180 183 183 187 193 195 194 194 193 194 195 193 190 192 196 198 201 201 199 197 198 201 199 199 199 199 200 200 199 199 199 196 191 189 187 182 178 177 179 177 177 178 175 174 176 180 179 171 167 167 168 165 159 158 158 160 172
342 23 329 337 191 264 300 232 190 209 237 122 139 218 266 268 260 259 260 155 143 161 178 178 176 173 171 179 166 146 156 186 202 197 189 180 172 170 170 173 178 182 183 186 189 188 190 192 191 192 193 191 189 195 200 201 202 203 203 200 200 202 202 203 203 201 200 199 199 200 201 199 194 192 191 187 181 178 178 174 171 173 178 181 182 185 183 177 169 165 173 175 161 155 154 158 171
351 119 245 260 211 271 315 287 218 199 197 144 170 212 271 268 257 260 278 204 158 162 177 181 177 180 175 175 165 151 162 176 199 206 195 183 178 176 173 175 179 182 184 185 185 185 187 188 189 190 189 187 188 196 203 203 203 206 207 203 201 203 203 206 207 205 201 199 199 199 199 198 196 195 192 190 185 179 177 175 173 175 182 183 183 184 182 179 173 161 162 173 171 160 154 155 163
318 11 261 269 240 236 280 302 278 195 178 184 193 215 241 262 285 301 311 287 195 168 173 182 176 176 180 179 170 161 171 178 193 204 192 179 180 180 176 176 179 180 182 185 188 188 187 187 187 186 184 183 187 197 202 201 203 207 207 205 204 203 203 207 210 210 204 200 198 198 197 196 196 195 192 189 186 182 178 175 174 175 180 182 181 180 179 180 177 163 156 162 172 167 160 156 157
234 257 311 291 277 264 255 277 288 181 174 186 188 214 243 269 308 322 317 315 169 167 168 172 174 179 188 185 176 169 174 184 195 196 183 173 175 176 176 176 176 178 180 185 188 188 187 185 183 179 178 180 190 199 197 194 200 203 203 205 205 202 202 207 210 212 207 201 199 198 198 196 193 192 190 188 187 185 180 177 175 172 176 179 178 178 180 179 175 167 157 158 168 175 169 157 152
194 206 171 263 278 276 253 257 264 187 168 183 177 198 236 265 298 306 309 23 104 138 166 173 177 182 192 188 176 174 178 184 189 186 176 172 171 170 173 175 176 178 182 184 184 185 183 179 177 173 176 184 192 194 186 185 197 199 201 205 204 202 203 205 207 211 209 204 201 200 199 196 192 192 193 192 189 187 184 180 176 172 174 177 177 180 184 180 174 169 159 158 165 168 164 154 150
221 262 330 290 286 281 268 276 276 191 152 188 179 178 218 260 281 271 280 39 101 134 171 213 195 183 190 188 179 175 180 177 171 174 168 166 166 165 170 174 176 179 182 181 178 179 178 175 172 169 176 188 189 186 183 190 196 194 197 202 201 201 204 203 204 209 209 206 203 199 198 196 195 197 198 196 192 188 184 182 179 175 174 180 183 183 183 177 170 168 160 157 161 162 159 153 149
245 253 285 291 282 278 277 286 295 167 124 203 184 154 207 251 273 257 235 43 104 155 164 195 205 198 197 184 184 175 166 160 153 162 159 157 160 164 170 175 177 177 177 177 176 175 175 173 171 170 177 182 183 188 190 192 196 194 194 197 195 196 202 203 203 209 210 206 203 198 196 196 196 199 200 197 193 189 186 184 182 177 173 179 184 183 180 172 167 167 161 156 161 164 163 158 153
240 236 239 275 270 289 293 300 333 14 91 199 163 137 215 251 272 282 288 354 262 182 169 185 191 195 199 189 185 166 153 161 160 161 158 156 161 166 170 175 178 177 174 175 176 174 173 171 170 172 177 178 182 192 189 183 192 198 196 196 195 195 199 201 204 212 212 207 205 200 198 197 196 198 199 196 193 189 187 186 182 177 173 177 181 179 175 170 167 168 165 162 161 161 163 166 169
237 206 185 259 264 298 286 305 351 5 71 154 135 124 265 295 321 308 313 9 7 358 159 190 191 191 200 198 186 169 164 169 168 165 162 161 165 169 172 177 179 177 175 176 174 171 169 170 172 174 175 177 184 192 188 178 183 194 199 198 195 194 196 198 202 211 211 207 205 202 201 201 200 198 196 193 192 190 187 184 180 176 175 180 182 177 172 173 174 173 171 167 163 156 158 169 179
249 206 185 227 244 206 232 282 360 358 359 86 93 52 323 327 347 311 311 18 27 18 36 62 256 215 212 228 166 169 164 165 169 169 168 170 173 176 177 177 179 179 178 176 172 169 169 171 175 175 173 176 184 191 188 180 177 188 196 194 190 190 193 196 200 207 209 206 206 205 204 204 204 201 196 192 192 190 184 180 178 176 177 186 187 178 174 178 184 184 179 174 170 165 163 172 183
258 230 200 202 211 227 260 331 39 30 350 333 89 67 305 314 334 297 317 31 34 24 30 29 5 352 290 205 146 117 91 122 159 166 170 175 178 179 178 177 181 183 181 174 170 170 170 171 174 175 173 177 184 188 187 185 185 188 188 185 186 187 190 197 202 206 206 204 206 208 207 206 206 205 200 197 196 192 183 178 178 177 181 190 190 183 179 183 187 187 186 182 179 176 171 173 185
227 236 205 195 214 271 298 357 65 92 263 301 73 115 249 313 326 311 30 52 39 29 26 18 9 7 358 313 196 148 134 136 145 154 168 177 182 182 181 183 185 183 177 170 168 169 169 172 177 178 178 179 181 183 186 186 186 187 187 189 192 190 193 201 204 206 206 204 206 208 208 206 206 207 204 201 202 197 187 182 181 182 187 191 190 187 185 188 189 187 187 189 187 185 180 178 183
218 234 185 179 275 290 288 21 108 173 213 334 3 100 131 317 311 330 47 60 37 26 22 13 12 11 9 2 354 139 145 152 156 164 176 180 180 176 177 188 188 179 173 169 166 168 172 177 183 186 186 184 183 185 187 188 186 185 187 191 194 196 202 205 201 200 202 205 211 210 206 204 204 208 207 205 204 198 189 184 183 188 193 193 191 190 190 191 192 189 188 191 191 192 192 188 186
228 221 178 194 224 244 286 47 119 162 92 341 312 48 98 286 302 334 34 58 39 22 13 10 14 11 13 19 21 41 71 80 101 124 146 104 75 75 80 159 167 164 168 168 167 171 179 184 186 189 189 187 188 191 191 191 191 188 187 189 195 200 207 207 198 193 196 203 212 210 204 202 201 205 208 206 203 197 192 187 186 194 197 194 193 194 195 193 192 191 189 191 192 193 199 199 193
227 190 149 147 137 90 351 61 105 59 64 244 275 6 103 292 331 346 19 49 37 19 10 9 18 18 18 23 28 35 39 41 42 36 33 36 48 60 60 107 150 161 167 167 170 178 186 189 187 186 186 186 190 194 194 194 193 191 189 190 194 199 205 206 197 189 192 199 208 207 202 201 201 202 204 203 199 195 197 193 189 196 197 195 197 196 195 194 193 194 192 194 195 194 198 202 201
163 121 120 34 26 35 33 44 78 54 16 249 258 74 100 78 344 350 16 37 37 49 35 19 19 22 24 26 29 33 35 40 40 37 35 33 44 54 60 77 73 37 146 166 170 181 192 192 187 182 182 186 191 193 194 196 196 194 193 194 196 198 201 201 194 190 192 196 203 205 201 202 203 201 199 200 197 194 197 196 192 194 193 196 199 194 190 192 194 196 196 198 198 195 196 200 204
105 93 125 313 344 9 26 358 38 77 284 265 262 82 88 90 352 10 43 50 48 56 50 33 24 19 21 24 27 29 30 34 35 35 30 27 34 41 50 62 53 32 37 127 160 177 195 197 188 183 183 187 191 194 195 197 198 198 197 197 199 201 203 200 194 193 193 195 199 201 199 202 205 203 199 196 194 191 193 195 195 194 191 193 195 193 193 193 195 199 200 201 198 194 197 199 199
87 93 97 115 325 11 20 307 7 147 242 255 229 114 83 91 98 59 62 63 54 57 56 44 34 25 21 21 24 28 29 31 30 29 26 23 28 33 50 65 58 64 69 42 132 184 203 203 188 186 187 188 191 194 198 199 201 203 201 201 202 205 209 206 200 198 196 196 197 197 197 199 202 205 202 193 189 190 192 193 196 194 190 190 190 192 196 194 194 199 199 199 195 193 198 201 200
123 139 130 137 136 90 203 263 25 236 262 264 220 123 108 128 94 66 72 73 61 61 58 51 48 41 33 26 27 31 32 32 27 24 24 19 22 28 60 81 64 63 92 121 179 194 209 209 195 193 191 191 192 193 198 201 204 206 205 205 206 206 209 210 206 203 200 198 198 196 196 198 199 200 197 190 185 187 188 187 188 185 183 186 189 192 195 192 192 195 195 194 192 193 199 203 205
164 165 137 141 150 138 178 207 157 211 265 301 319 81 129 164 119 80 88 82 67 63 56 57 57 50 46 39 34 32 29 28 24 21 22 16 18 20 44 92 91 86 106 167 205 215 238 264 240 227 205 199 198 195 198 200 204 208 207 208 211 207 205 209 214 211 204 201 199 196 196 197 197 195 191 186 183 183 183 181 181 181 182 186 191 191 190 190 190 192 193 193 192 193 198 201 204
226 132 101 149 179 151 148 173 165 169 183 345 2 55 93 142 123 93 88 75 63 65 59 58 55 46 51 50 44 39 32 27 23 18 17 13 13 14 16 45 107 185 191 233 247 262 302 331 301 281 265 228 214 205 204 203 207 213 213 213 213 209 204 207 215 214 207 204 200 196 195 195 195 192 187 184 182 181 182 181 182 185 185 183 184 184 184 186 188 190 192 192 193 194 196 198 202
227 105 159 220 163 138 133 187 141 100 130 267 95 108 105 114 98 51 57 62 55 64 66 61 53 45 50 52 48 45 41 35 30 22 17 11 10 9 8 7 358 335 300 241 261 283 285 290 297 295 290 249 226 218 211 205 209 222 226 223 216 209 206 207 212 212 208 206 202 197 195 194 191 187 185 184 183 182 182 181 181 183 183 180 180 183 184 185 188 191 191 192 195 196 196 199 201
117 159 211 175 98 110 109 139 26 65 160 265 19 117 151 152 155 7 40 48 45 62 71 67 58 51 51 53 51 47 45 40 31 26 22 15 10 6 6 9 14 24 36 65 62 313 281 265 262 242 232 229 220 211 207 209 212 215 221 226 222 215 209 208 210 210 209 207 202 196 193 191 187 184 185 185 184 183 183 182 179 180 182 180 180 183 185 187 189 189 190 191 194 196 198 202 202
134 180 188 124 121 229 51 138 142 107 167 264 26 68 125 156 227 4 35 36 40 59 64 61 56 52 49 50 49 45 43 35 22 19 19 16 10 5 5 10 15 23 30 41 42 334 295 267 257 246 246 248 236 223 217 216 215 212 213 216 219 220 216 212 211 209 209 208 203 195 190 188 185 184 185 185 185 185 184 182 179 178 180 181 182 183 184 189 191 189 191 193 192 196 201 204 205
354 157 199 112 140 166 180 169 152 145 180 178 74 37 325 257 324 30 45 32 45 59 59 57 54 54 50 45 43 39 37 27 12 10 9 8 7 2 4 12 14 17 22 27 27 8 325 291 281 276 278 270 252 240 231 225 218 211 210 213 217 221 221 218 215 212 212 211 204 194 186 182 181 182 182 181 183 184 183 183 180 176 177 179 180 179 180 185 187 187 191 194 193 196 202 205 205
199 101 22 339 341 141 152 160 138 136 157 158 126 139 261 270 10 59 66 54 60 67 68 62 54 56 56 47 42 39 34 23 6 3 1 1 2 358 3 14 17 16 18 20 21 18 9 350 324 302 287 267 255 249 245 243 233 218 212 214 219 221 221 222 218 216 218 217 207 196 186 180 178 178 179 177 178 180 180 179 176 172 172 175 177 179 181 182 182 183 187 191 192 195 199 202 203
106 103 104 174 233 140 127 193 302 81 125 153 143 158 236 335 72 80 66 58 58 55 63 67 53 50 52 45 40 35 31 21 5 356 354 359 3 3 6 14 18 17 14 14 16 17 16 12 4 345 311 284 276 268 257 251 240 225 218 218 221 222 223 224 221 218 220 218 211 204 191 181 177 177 177 176 175 177 177 174 172 172 172 174 175 177 180 181 181 184 187 191 194 195 198 201 203